Weather History for KFME - November, 2012

Change the Weather History Date:

Wednesday, November 7, 2012

  Actual Average (KBWI) Record (KBWI)
Temperature  
Mean Temperature 40 °F 49 °F  
Max Temperature 42 °F 60 °F 77 °F (1975)
Min Temperature 37 °F 39 °F 22 °F (1962)
Degree Days  
Heating Degree Days 26 16  
Month to date heating degree days 104  
Since 1 July heating degree days 451  
Cooling Degree Days 0 0  
Month to date cooling degree days 0  
Year to date cooling degree days 1163  
Moisture  
Dew Point 31 °F    
Average Humidity 69    
Maximum Humidity 87    
Minimum Humidity 57    
Precipitation  
Precipitation 0.00 in 0.11 in 2.44 in (1997)
Month to date precipitation 0.79  
Year to date precipitation 36.00  
Snow  
Snow 0.00 in 0.00 in 0.40 in (1953)
Month to date snowfall 0.0  
Since 1 July snowfall 0.0  
Snow Depth -    
Sea Level Pressure  
Sea Level Pressure 29.92 in    
Wind  
Wind Speed 6 mph (NNW)    
Max Wind Speed 10 mph    
Max Gust Speed 22 mph    
Visibility 10 miles    
Events      
T = Trace of Precipitation, MM = Missing Value Source: NWS Daily Summary

Daily Weather History Graph

Daily Weather History Graph

Search for Another Location

Airport or City:

Trip Planner

Search our weather history database for the weather conditions in past years. The results will help you decide how hot, cold, wet, or windy it might be!

Date:

Astronomy

Nov. 07, 2012 Rise Set
Actual Time 6:41 AM EST 4:59 PM EST
Civil Twilight 6:13 AM EST 5:27 PM EST
Nautical Twilight 5:41 AM EST 5:59 PM EST
Astronomical Twilight 5:10 AM EST 6:30 PM EST
Moon No Moon Rise 1:04 PM EST (11/7)
Length of Visible Light 11h 13m
Length of Day
10h 17m
Last Quarter, 43% of the Moon is Illuminated
Nov 7
Last Quarter
Nov 13
New
Nov 20
First Quarter
Nov 28
Full
Dec 6
Last Quarter

Hourly Weather History & Observations

Time (EST) Temp. Windchill Dew Point Humidity Pressure Visibility Wind Dir Wind Speed Gust Speed Precip Events Conditions
11:15 AM 41.0 °F 38.0 °F 28.4 °F 61% 29.93 in 10.0 mi North 4.6 mph - N/A   Overcast
11:36 AM 41.0 °F 38.0 °F 28.4 °F 61% 29.93 in 10.0 mi North 4.6 mph - N/A   Overcast
11:54 AM 41.0 °F 37.1 °F 28.4 °F 61% 29.93 in 10.0 mi North 5.8 mph - N/A   Overcast
12:18 PM 42.8 °F 39.3 °F 28.4 °F 57% 29.92 in 10.0 mi NNE 5.8 mph - N/A   Overcast
12:39 PM 42.8 °F 38.6 °F 28.4 °F 57% 29.93 in 10.0 mi North 6.9 mph - N/A   Overcast
1:00 PM 42.8 °F 37.5 °F 28.4 °F 57% 29.92 in 10.0 mi NNE 9.2 mph - N/A   Overcast
1:21 PM 42.8 °F 38.0 °F 28.4 °F 57% 29.92 in 10.0 mi North 8.1 mph - N/A   Mostly Cloudy
1:42 PM 42.8 °F 37.0 °F 28.4 °F 57% 29.92 in 10.0 mi North 10.4 mph - N/A   Scattered Clouds
2:03 PM 42.8 °F 37.5 °F 28.4 °F 57% 29.92 in 10.0 mi North 9.2 mph - N/A   Mostly Cloudy
2:24 PM 42.8 °F 38.0 °F 28.4 °F 57% 29.91 in 10.0 mi North 8.1 mph - N/A   Overcast
2:45 PM 42.8 °F 37.0 °F 28.4 °F 57% 29.90 in 10.0 mi NNW 10.4 mph 17.3 mph N/A   Overcast
3:27 PM 41.0 °F 35.2 °F 30.2 °F 65% 29.91 in 10.0 mi NNW 9.2 mph - N/A   Overcast
3:51 PM 41.0 °F 35.8 °F 32.0 °F 70% 29.91 in 10.0 mi NNW 8.1 mph - N/A   Scattered Clouds
4:12 PM 39.2 °F 35.0 °F 32.0 °F 75% 29.91 in 10.0 mi NNW 5.8 mph - N/A   Clear
4:33 PM 41.0 °F 37.1 °F 32.0 °F 70% 29.91 in 10.0 mi NNW 5.8 mph - N/A   Scattered Clouds
4:54 PM 41.0 °F 38.0 °F 32.0 °F 70% 29.91 in 10.0 mi NNW 4.6 mph - N/A   Mostly Cloudy
5:15 PM 39.2 °F 35.0 °F 32.0 °F 75% 29.93 in 10.0 mi NNE 5.8 mph - N/A   Scattered Clouds
5:36 PM 39.2 °F 37.0 °F 32.0 °F 75% 29.93 in 10.0 mi North 3.5 mph - N/A   Overcast
5:57 PM 41.0 °F 37.1 °F 32.0 °F 70% 29.94 in 10.0 mi North 5.8 mph 21.9 mph N/A   Overcast
6:18 PM 41.0 °F 37.1 °F 30.2 °F 65% 29.93 in 10.0 mi NNW 5.8 mph - N/A   Overcast
6:39 PM 41.0 °F 37.1 °F 30.2 °F 65% 29.93 in 10.0 mi NNW 5.8 mph - N/A   Overcast
7:00 PM 41.0 °F 38.0 °F 30.2 °F 65% 29.93 in 10.0 mi NW 4.6 mph - N/A   Overcast
7:21 PM 41.0 °F 38.0 °F 30.2 °F 65% 29.93 in 10.0 mi NW 4.6 mph - N/A   Overcast
8:03 PM 41.0 °F - 30.2 °F 65% 29.93 in 10.0 mi Calm Calm - N/A   Overcast
8:27 PM 39.2 °F 37.0 °F 30.2 °F 70% 29.93 in 10.0 mi NNW 3.5 mph - N/A   Overcast
8:48 PM 39.2 °F 35.0 °F 32.0 °F 75% 29.93 in 10.0 mi NNW 5.8 mph - N/A   Scattered Clouds
9:09 PM 37.4 °F 32.8 °F 32.0 °F 81% 29.93 in 10.0 mi NW 5.8 mph - N/A   Clear
9:30 PM 37.4 °F 34.9 °F 32.0 °F 81% 29.93 in 10.0 mi North 3.5 mph - N/A   Scattered Clouds
9:51 PM 37.4 °F - 32.0 °F 81% 29.93 in 10.0 mi Calm Calm - N/A   Scattered Clouds
10:12 PM 37.4 °F 33.8 °F 33.8 °F 87% 29.93 in 10.0 mi NW 4.6 mph - N/A   Mostly Cloudy
10:33 PM 37.4 °F 34.9 °F 33.8 °F 87% 29.92 in 10.0 mi NW 3.5 mph - N/A   Scattered Clouds
10:54 PM 37.4 °F 33.8 °F 32.0 °F 81% 29.92 in 10.0 mi NW 4.6 mph - N/A   Clear
11:15 PM 37.4 °F 33.8 °F 32.0 °F 81% 29.91 in 10.0 mi NNW 4.6 mph - N/A   Clear
11:36 PM 37.4 °F 32.8 °F 32.0 °F 81% 29.91 in 10.0 mi NNW 5.8 mph - N/A   Mostly Cloudy
11:54 PM 37.4 °F 34.9 °F 32.0 °F 81% 29.90 in 10.0 mi NW 3.5 mph - N/A   Mostly Cloudy